Content
SEND FEEDBACK

Daily
Averages
Monthly
Summary
Mexico

COZUMEL, QUINTANA ROO


Home > North America > Mexico > Quintana Roo
Elevation: 15 feet     Latitude: 20 31N     Longitude: 086 56W

WEATHER
 
SELECT A DAY
Number of Records: 124,615;   Date Range: 1/1/95 - 7/28/14
 
SHARE

PRINT THIS DATA

[ ← Previous Day ]
WEATHER ALMANAC - APRIL 25, 2014
[ Next Day → ]
[ °C ]   °F
Weather ElementAverageHighLow
Temperature76.4 °F86 °F (12:40 pm)66.2 °F (4:40 am)
Dewpoint70.3 °F71.6 °F (7:40 am)66.2 °F (4:40 am)
Humidity83 %100 % (12:41 am)58 % (3:40 pm)
Barometer29.94 in30.01 in (9:41 am)29.90 in (4:40 am)
Wind Speed6.4 mph15 mph (9:41 am)
Weather ElementAverage
Visibility7.2 mi
Wind DirectionESE (101.3 °)

Weather ElementTotal
Precipitation---
Cooling Degree Days11.1 (Base 65)
Growing Degree Days26.1 (Base 50)
Averaged from 24 records on April 25, 2014
WEATHER CONDITIONS BREAKOUT
WIND DIRECTION BREAKOUT
WEATHER BY HOUR - APRIL 25, 2014
[ °C ]   °F
Local TimeTemperatureDewpointHumidityBarometerVisibilityWind DirectionWind SpeedGust SpeedPrecipitationEventsConditions
12:41 AM68.0 °F68.0 °F100 %29.91 in7.0 miCalmClear
1:41 AM68.0 °F68.0 °F100 %29.92 in7.0 miCalmClear
2:42 AM68.0 °F68.0 °F100 %29.91 in7.0 miCalmClear
3:40 AM68.0 °F68.0 °F100 %29.91 in7.0 miCalmClear
4:40 AM66.2 °F66.2 °F100 %29.90 in7.0 miCalmClear
5:41 AM66.2 °F66.2 °F100 %29.90 in7.0 miESE (120°)3.5 mphClear
6:46 AM68.0 °F68.0 °F100 %29.90 in7.0 miSE (130°)4.6 mphClear
7:40 AM73.4 °F71.6 °F94 %29.94 in7.0 miESE (120°)4.6 mphClear
8:40 AM78.8 °F71.6 °F78 %29.97 in7.0 miSE (130°)11.5 mphScattered Clouds
9:41 AM82.4 °F71.6 °F70 %30.01 in7.0 miSE (140°)15.0 mphScattered Clouds
10:40 AM84.2 °F71.6 °F66 %29.98 in7.0 miSE (140°)15.0 mphScattered Clouds
11:40 AM84.2 °F71.6 °F66 %29.98 in7.0 miSE (130°)9.2 mphScattered Clouds
12:40 PM86.0 °F71.6 °F62 %29.95 in7.0 miSE (140°)10.4 mphScattered Clouds
1:40 PM86.0 °F71.6 °F62 %29.96 in7.0 miSE (130°)12.7 mphScattered Clouds
2:40 PM86.0 °F71.6 °F62 %29.94 in8.0 miSE (130°)13.8 mphScattered Clouds
3:40 PM86.0 °F69.8 °F58 %29.95 in8.0 miSE (130°)8.1 mphScattered Clouds
4:42 PM84.2 °F71.6 °F66 %29.91 in8.0 miSE (130°)9.2 mphPartly Cloudy
5:43 PM80.6 °F71.6 °F74 %29.92 in8.0 miSE (130°)6.9 mphPartly Cloudy
6:40 PM80.6 °F71.6 °F74 %29.92 in7.0 miSE (130°)8.1 mphPartly Cloudy
7:40 PM77.0 °F71.6 °F83 %29.93 in7.0 miSE (130°)5.8 mphClear
8:44 PM75.2 °F71.6 °F89 %29.94 in7.0 miESE (120°)3.5 mphScattered Clouds
9:40 PM73.4 °F71.6 °F94 %29.99 in7.0 miESE (110°)4.6 mphScattered Clouds
10:43 PM71.6 °F71.6 °F100 %29.97 in7.0 miESE (120°)4.6 mphScattered Clouds
11:40 PM71.6 °F69.8 °F94 %29.97 in7.0 miESE (120°)3.5 mphScattered Clouds
Hourly data recorded from MMCZ, located miles away from Cozumel, Quintana Roo







STORIES FROM OUR PARTNERS